KHB103 UIII-VTBS

Flight info

Callsign KHB103
Flight time N/A
Altitude 34100
Route ULTUK5C ULTUK G909 LETBI B480 MORIT B330 UBKER G212 SGM A581 SAGAG/N0450F341 B218 LPB B346 NOBER NORTA1C
Aircraft A320/M-SDE3FGHIRWY/LB1

Departure

Time 2026-05-07 03:55
Airport Irkutsk International Airport (UIII)

Arrival

Time N/A
Airport Suvarnabhumi Airport (VTBS)
Time Latitude Longitude Altitude Speed Heading
2026-05-07 03:45 52.27141 104.36184 1629 ft 0 kts 356°
2026-05-07 03:50 52.27159 104.36185 1632 ft 5 kts 10°
2026-05-07 03:50 52.27178 104.36217 1629 ft 3 kts 66°
2026-05-07 03:50 52.27181 104.36242 1629 ft 1 kts 82°
2026-05-07 03:50 52.27181 104.36252 1629 ft 1 kts 87°
2026-05-07 03:51 52.27176 104.36300 1629 ft 9 kts 105°
2026-05-07 03:51 52.27156 104.36400 1631 ft 9 kts 109°
2026-05-07 03:51 52.27138 104.36482 1632 ft 7 kts 109°
2026-05-07 03:51 52.27123 104.36544 1632 ft 7 kts 112°
2026-05-07 03:52 52.27094 104.36665 1631 ft 15 kts 110°
2026-05-07 03:52 52.27058 104.36826 1632 ft 10 kts 110°
2026-05-07 03:52 52.27032 104.36938 1629 ft 10 kts 110°
2026-05-07 03:52 52.27002 104.37073 1629 ft 12 kts 110°
2026-05-07 03:53 52.27005 104.37226 1631 ft 14 kts 59°
2026-05-07 03:53 52.27055 104.37343 1629 ft 12 kts 53°
2026-05-07 03:53 52.27098 104.37438 1631 ft 9 kts 55°
2026-05-07 03:53 52.27129 104.37511 1630 ft 6 kts 55°
2026-05-07 03:54 52.27147 104.37553 1630 ft 3 kts 53°
2026-05-07 03:54 52.27160 104.37582 1631 ft 7 kts 54°
2026-05-07 03:54 52.27183 104.37687 1632 ft 12 kts 95°
2026-05-07 03:54 52.27096 104.38035 1637 ft 66 kts 114°
2026-05-07 03:55 52.26827 104.39042 1649 ft 125 kts 113°
2026-05-07 03:55 52.26423 104.40598 1680 ft 170 kts 111°
2026-05-07 03:55 52.25984 104.42340 2345 ft 158 kts 115°
2026-05-07 03:55 52.25538 104.43972 2973 ft 159 kts 124°
2026-05-07 03:56 52.24665 104.44977 3483 ft 161 kts 177°
2026-05-07 03:56 52.23609 104.44446 3916 ft 164 kts 216°
2026-05-07 03:56 52.22632 104.43238 4001 ft 188 kts 219°
2026-05-07 03:56 52.21556 104.41812 4217 ft 211 kts 220°
2026-05-07 03:57 52.20363 104.40182 4497 ft 235 kts 221°
2026-05-07 03:57 52.19063 104.38352 4808 ft 256 kts 222°
2026-05-07 03:57 52.17700 104.36393 5463 ft 264 kts 223°
2026-05-07 03:57 52.16322 104.34379 6264 ft 268 kts 223°
2026-05-07 03:58 52.14931 104.32321 7025 ft 271 kts 223°
2026-05-07 03:58 52.13532 104.30235 7792 ft 274 kts 224°
2026-05-07 03:58 52.12118 104.28117 8576 ft 278 kts 224°
2026-05-07 03:58 52.10692 104.25978 9325 ft 280 kts 224°
2026-05-07 03:59 52.09248 104.23813 10061 ft 284 kts 224°
2026-05-07 03:59 52.07764 104.21585 10420 ft 301 kts 225°
2026-05-07 03:59 52.06188 104.19218 10572 ft 323 kts 224°
2026-05-07 03:59 52.04452 104.16618 10713 ft 346 kts 224°
2026-05-07 04:00 52.02642 104.13924 11056 ft 358 kts 224°
2026-05-07 04:00 52.00814 104.11218 11613 ft 364 kts 224°
2026-05-07 04:00 51.98905 104.08398 12195 ft 368 kts 224°
2026-05-07 04:00 51.97027 104.05619 12755 ft 373 kts 224°
2026-05-07 04:01 51.95104 104.02769 13333 ft 377 kts 225°
2026-05-07 04:01 51.93157 103.99878 13918 ft 382 kts 225°
2026-05-07 04:01 51.91187 103.96952 14432 ft 386 kts 225°
2026-05-07 04:01 51.89199 103.94001 14970 ft 389 kts 225°
2026-05-07 04:02 51.87190 103.91028 15512 ft 392 kts 225°
2026-05-07 04:02 51.85166 103.88043 16043 ft 396 kts 225°
2026-05-07 04:02 51.83122 103.85031 16567 ft 399 kts 225°
2026-05-07 04:02 51.81064 103.82006 17099 ft 402 kts 225°
2026-05-07 04:03 51.78982 103.78957 17636 ft 405 kts 225°
2026-05-07 04:03 51.76888 103.75896 18136 ft 408 kts 225°
2026-05-07 04:03 51.74729 103.72875 18605 ft 413 kts 220°
2026-05-07 04:03 51.72278 103.70389 19020 ft 420 kts 210°
2026-05-07 04:04 51.69540 103.68633 19454 ft 427 kts 199°
2026-05-07 04:04 51.66620 103.67712 19857 ft 434 kts 188°
2026-05-07 04:04 51.63574 103.67361 20274 ft 438 kts 186°
2026-05-07 04:04 51.60524 103.67014 20697 ft 441 kts 187°
2026-05-07 04:05 51.57457 103.66658 21090 ft 444 kts 187°
2026-05-07 04:05 51.54367 103.66293 21470 ft 447 kts 187°
2026-05-07 04:05 51.51263 103.65923 21853 ft 450 kts 187°
2026-05-07 04:05 51.48128 103.65554 22226 ft 452 kts 187°
2026-05-07 04:06 51.44988 103.65186 22560 ft 454 kts 187°
2026-05-07 04:06 51.41877 103.64823 22888 ft 457 kts 187°
2026-05-07 04:06 51.38683 103.64455 23254 ft 460 kts 187°
2026-05-07 04:06 51.35446 103.64082 23586 ft 462 kts 187°
2026-05-07 04:07 51.32272 103.63716 23867 ft 465 kts 187°
2026-05-07 04:07 51.29042 103.63345 24165 ft 466 kts 187°
2026-05-07 04:07 51.25800 103.62968 24461 ft 468 kts 187°
2026-05-07 04:07 51.22508 103.62584 24760 ft 469 kts 187°
2026-05-07 04:08 51.19286 103.62212 25034 ft 471 kts 187°
2026-05-07 04:08 51.15970 103.61835 25307 ft 473 kts 187°
2026-05-07 04:08 51.12730 103.61464 25579 ft 474 kts 187°
2026-05-07 04:08 51.09435 103.61083 25843 ft 476 kts 187°
2026-05-07 04:09 51.06124 103.60700 26097 ft 478 kts 187°
2026-05-07 04:09 51.02797 103.60313 26368 ft 480 kts 187°
2026-05-07 04:09 50.99467 103.59925 26619 ft 481 kts 187°
2026-05-07 04:09 50.96120 103.59539 26860 ft 483 kts 187°
2026-05-07 04:10 50.92766 103.59161 27084 ft 484 kts 187°
2026-05-07 04:10 50.89398 103.58786 27299 ft 486 kts 187°
2026-05-07 04:10 50.86025 103.58414 27517 ft 487 kts 187°
2026-05-07 04:10 50.82638 103.58038 27725 ft 488 kts 187°
2026-05-07 04:11 50.79243 103.57656 27916 ft 490 kts 187°
2026-05-07 04:11 50.75843 103.57265 28099 ft 491 kts 187°
2026-05-07 04:11 50.72429 103.56877 28360 ft 491 kts 187°
2026-05-07 04:11 50.69021 103.56495 28649 ft 490 kts 187°
2026-05-07 04:12 50.65614 103.56114 28898 ft 490 kts 187°
2026-05-07 04:12 50.62218 103.55732 29162 ft 490 kts 187°
2026-05-07 04:12 50.58817 103.55345 29437 ft 489 kts 187°
2026-05-07 04:12 50.55423 103.54963 29715 ft 489 kts 187°
2026-05-07 04:13 50.52038 103.54583 29976 ft 488 kts 187°
2026-05-07 04:13 50.48648 103.54205 30221 ft 488 kts 187°
2026-05-07 04:13 50.45258 103.53829 30446 ft 487 kts 187°
2026-05-07 04:13 50.41888 103.53452 30675 ft 486 kts 187°
2026-05-07 04:14 50.38504 103.53077 30905 ft 485 kts 187°
2026-05-07 04:14 50.35142 103.52707 31126 ft 485 kts 187°
2026-05-07 04:14 50.32914 103.52465 31292 ft 484 kts 187°
2026-05-07 04:14 50.29551 103.52096 31516 ft 484 kts 187°
2026-05-07 04:15 50.26196 103.51723 31753 ft 483 kts 188°
2026-05-07 04:15 50.22853 103.51350 31986 ft 482 kts 188°
2026-05-07 04:15 50.19503 103.50978 32210 ft 481 kts 188°
2026-05-07 04:15 50.16164 103.50615 32446 ft 480 kts 187°
2026-05-07 04:16 50.12835 103.50274 32658 ft 480 kts 187°
2026-05-07 04:16 50.09505 103.49949 32887 ft 479 kts 187°
2026-05-07 04:16 50.06177 103.49638 33108 ft 479 kts 187°
2026-05-07 04:16 50.02855 103.49326 33320 ft 478 kts 187°
2026-05-07 04:17 49.98418 103.48902 33603 ft 477 kts 187°
2026-05-07 04:17 49.96222 103.48688 33728 ft 477 kts 188°
2026-05-07 04:17 49.92917 103.48361 33952 ft 476 kts 188°
2026-05-07 04:18 49.85235 103.47606 34039 ft 476 kts 188°
2026-05-07 04:18 49.79707 103.47059 34043 ft 476 kts 188°
2026-05-07 04:19 49.73097 103.46411 34036 ft 476 kts 187°
2026-05-07 04:19 49.66493 103.45779 34042 ft 476 kts 187°
2026-05-07 04:20 49.59879 103.45133 34034 ft 476 kts 187°
2026-05-07 04:20 49.53265 103.44501 34043 ft 476 kts 187°
2026-05-07 04:21 49.43331 103.43532 34033 ft 476 kts 187°
2026-05-07 04:21 49.36745 103.42903 34033 ft 476 kts 187°
2026-05-07 04:22 49.30107 103.42286 34035 ft 477 kts 187°
2026-05-07 04:22 49.23502 103.41670 34028 ft 477 kts 187°
2026-05-07 04:23 49.16882 103.41035 34031 ft 477 kts 187°
2026-05-07 04:23 49.10245 103.40392 34029 ft 477 kts 187°
2026-05-07 04:24 49.03634 103.39772 34033 ft 477 kts 187°
2026-05-07 04:24 48.96987 103.39155 34025 ft 477 kts 187°
2026-05-07 04:25 48.90369 103.38525 34027 ft 477 kts 187°
2026-05-07 04:25 48.83750 103.37899 34024 ft 477 kts 187°
2026-05-07 04:26 48.77151 103.37290 34021 ft 477 kts 187°
2026-05-07 04:26 48.70515 103.36673 34017 ft 477 kts 187°
2026-05-07 04:27 48.63879 103.36057 34020 ft 478 kts 187°
2026-05-07 04:27 48.57252 103.35442 34017 ft 478 kts 187°
2026-05-07 04:28 48.50609 103.34836 34019 ft 478 kts 187°
2026-05-07 04:28 48.43966 103.34223 34014 ft 478 kts 187°
2026-05-07 04:29 48.37323 103.33605 34018 ft 478 kts 187°
2026-05-07 04:29 48.30678 103.32999 33743 ft 478 kts 188°
2026-05-07 04:30 48.27370 103.32700 33925 ft 476 kts 188°
2026-05-07 04:30 48.24054 103.32397 34031 ft 477 kts 188°
2026-05-07 04:30 48.17426 103.31788 34020 ft 477 kts 188°
2026-05-07 04:31 48.10800 103.31190 34023 ft 477 kts 188°
2026-05-07 04:31 48.04175 103.30601 34021 ft 477 kts 188°
2026-05-07 04:32 47.97545 103.30005 34024 ft 477 kts 188°
2026-05-07 04:32 47.90907 103.29396 34021 ft 478 kts 188°
2026-05-07 04:33 47.84298 103.28797 34020 ft 478 kts 188°
2026-05-07 04:33 47.77642 103.28194 34021 ft 478 kts 188°
2026-05-07 04:34 47.70995 103.27607 34019 ft 478 kts 188°
2026-05-07 04:34 47.64345 103.27020 34022 ft 478 kts 188°
2026-05-07 04:35 47.57702 103.26423 34021 ft 478 kts 188°
2026-05-07 04:35 47.51094 103.25832 34026 ft 478 kts 188°
2026-05-07 04:36 47.44435 103.25234 34026 ft 478 kts 188°
2026-05-07 04:36 47.37809 103.24640 34028 ft 478 kts 187°
2026-05-07 04:37 47.31165 103.24047 34033 ft 478 kts 187°
2026-05-07 04:37 47.24520 103.23477 34037 ft 478 kts 187°
2026-05-07 04:38 47.17872 103.22896 34037 ft 478 kts 187°
2026-05-07 04:38 47.11224 103.22311 34037 ft 479 kts 187°
2026-05-07 04:39 47.04572 103.21725 34045 ft 479 kts 187°
2026-05-07 04:39 46.97921 103.21147 34043 ft 479 kts 187°
2026-05-07 04:40 46.91263 103.20571 34048 ft 479 kts 187°
2026-05-07 04:40 46.84601 103.20003 34047 ft 479 kts 187°
2026-05-07 04:41 46.77951 103.19424 34055 ft 479 kts 187°
2026-05-07 04:41 46.71288 103.18855 34053 ft 479 kts 187°
2026-05-07 04:42 46.64633 103.18281 34062 ft 479 kts 187°
2026-05-07 04:42 46.57975 103.17694 34061 ft 479 kts 187°
2026-05-07 04:43 46.51329 103.17122 34067 ft 479 kts 187°
2026-05-07 04:43 46.44676 103.16554 34065 ft 479 kts 187°
2026-05-07 04:44 46.37993 103.15994 34065 ft 479 kts 187°
2026-05-07 04:44 46.31381 103.15434 34066 ft 478 kts 187°
2026-05-07 04:45 46.24722 103.14866 34067 ft 478 kts 187°
2026-05-07 04:45 46.18069 103.14299 34072 ft 478 kts 187°
2026-05-07 04:46 46.11437 103.13742 34073 ft 478 kts 187°
2026-05-07 04:46 46.04791 103.13195 34070 ft 478 kts 187°
2026-05-07 04:47 45.98171 103.12645 34076 ft 478 kts 187°
2026-05-07 04:47 45.91553 103.12088 34071 ft 477 kts 187°
2026-05-07 04:48 45.84895 103.11520 34077 ft 477 kts 187°
2026-05-07 04:48 45.78275 103.10959 34077 ft 476 kts 187°
2026-05-07 04:49 45.71679 103.10411 34086 ft 476 kts 187°
2026-05-07 04:49 45.65043 103.09857 34081 ft 476 kts 187°
2026-05-07 04:50 45.58458 103.09315 34098 ft 476 kts 187°
2026-05-07 04:50 45.51848 103.08770 34097 ft 476 kts 187°
2026-05-07 04:51 45.45241 103.08230 34095 ft 476 kts 187°
2026-05-07 04:51 45.38625 103.07684 34100 ft 475 kts 187°
2026-05-07 04:52 45.32033 103.07135 34099 ft 475 kts 187°
2026-05-07 04:52 45.25423 103.06601 34097 ft 475 kts 187°
2026-05-07 04:53 45.18834 103.06067 34096 ft 474 kts 187°
2026-05-07 04:53 45.12238 103.05515 34099 ft 474 kts 187°
2026-05-07 04:54 45.05668 103.04986 34100 ft 474 kts 187°
2026-05-07 04:54 44.99079 103.04465 34098 ft 473 kts 187°
2026-05-07 04:55 44.92511 103.03934 34099 ft 473 kts 187°
2026-05-07 04:55 44.85944 103.03398 34093 ft 473 kts 187°
2026-05-07 04:56 44.79375 103.02860 34094 ft 472 kts 187°
2026-05-07 04:56 44.72816 103.02333 34094 ft 472 kts 187°
2026-05-07 04:57 44.66251 103.01809 34090 ft 472 kts 187°
2026-05-07 04:57 44.60800 103.01378 34096 ft 472 kts 187°
2026-05-07 04:58 44.53143 103.00762 34089 ft 472 kts 187°
2026-05-07 04:58 44.47694 103.00335 34086 ft 472 kts 187°
2026-05-07 04:59 44.41140 102.99823 34084 ft 471 kts 187°
2026-05-07 04:59 44.34610 102.99298 34086 ft 471 kts 187°
2026-05-07 05:00 44.28051 102.98760 34083 ft 471 kts 187°
2026-05-07 05:00 44.21516 102.98241 34085 ft 471 kts 187°
2026-05-07 05:01 44.14944 102.97741 34092 ft 471 kts 187°
2026-05-07 05:01 44.08428 102.97243 34091 ft 471 kts 187°
2026-05-07 05:02 44.01883 102.96724 34098 ft 471 kts 187°
2026-05-07 05:02 43.95339 102.96209 34096 ft 471 kts 187°
2026-05-07 05:03 43.88857 102.95695 34107 ft 471 kts 187°
2026-05-07 05:03 43.82318 102.95188 34111 ft 470 kts 187°
2026-05-07 05:04 43.75785 102.94693 34117 ft 470 kts 187°
2026-05-07 05:04 43.69267 102.94191 34123 ft 469 kts 187°
2026-05-07 05:05 43.62747 102.93683 34125 ft 469 kts 187°
2026-05-07 05:05 43.56231 102.93170 34130 ft 469 kts 187°
2026-05-07 05:06 43.49726 102.92666 34120 ft 468 kts 187°
2026-05-07 05:06 43.43217 102.92172 34120 ft 468 kts 187°
2026-05-07 05:07 43.36721 102.91680 34123 ft 468 kts 187°
2026-05-07 05:07 43.30228 102.91186 34121 ft 467 kts 187°
2026-05-07 05:08 43.23730 102.90680 34124 ft 467 kts 187°
2026-05-07 05:08 43.17239 102.90173 34116 ft 467 kts 187°
2026-05-07 05:09 43.10746 102.89684 34112 ft 467 kts 187°
2026-05-07 05:09 43.04254 102.89196 34113 ft 467 kts 187°
2026-05-07 05:10 42.97763 102.88710 34110 ft 467 kts 187°
2026-05-07 05:10 42.91311 102.88221 34110 ft 467 kts 187°
2026-05-07 05:11 42.84809 102.87725 34107 ft 467 kts 187°
2026-05-07 05:11 42.78543 102.87260 34101 ft 466 kts 187°
2026-05-07 05:12 42.72077 102.86779 34103 ft 466 kts 187°
2026-05-07 05:12 42.65637 102.86296 34095 ft 465 kts 187°
2026-05-07 05:13 42.59164 102.85804 34098 ft 465 kts 187°
2026-05-07 05:13 42.52697 102.85325 34096 ft 464 kts 187°
2026-05-07 05:14 42.46292 102.84856 34095 ft 464 kts 187°
2026-05-07 05:14 42.39804 102.84366 34098 ft 464 kts 188°
2026-05-07 05:15 42.33403 102.83884 34096 ft 463 kts 188°
2026-05-07 05:15 42.26945 102.83402 34094 ft 463 kts 188°
2026-05-07 05:16 42.20539 102.82932 34097 ft 462 kts 188°
2026-05-07 05:16 42.14121 102.82464 34198 ft 463 kts 188°
2026-05-07 05:17 42.07688 102.81987 34203 ft 463 kts 188°
2026-05-07 05:17 42.01234 102.82573 34204 ft 471 kts 171°
2026-05-07 05:18 41.94913 102.85041 34205 ft 473 kts 167°
2026-05-07 05:18 41.88607 102.87578 34207 ft 473 kts 167°
2026-05-07 05:19 41.82309 102.90097 34205 ft 472 kts 167°
2026-05-07 05:19 41.76007 102.92597 34206 ft 472 kts 167°
2026-05-07 05:20 41.69709 102.95098 34202 ft 472 kts 167°
2026-05-07 05:20 41.63421 102.97595 34200 ft 471 kts 167°
2026-05-07 05:21 41.53859 102.99011 34195 ft 459 kts 186°
2026-05-07 05:22 41.47481 102.98935 34195 ft 459 kts 186°
2026-05-07 05:22 41.41109 102.98880 34198 ft 458 kts 186°
2026-05-07 05:23 41.34711 102.98828 34196 ft 458 kts 186°
2026-05-07 05:23 41.28318 102.98832 34200 ft 459 kts 186°
2026-05-07 05:24 41.21947 102.98882 34196 ft 459 kts 186°
2026-05-07 05:24 41.15587 102.98923 34198 ft 459 kts 186°
2026-05-07 05:25 41.09191 102.98934 34194 ft 459 kts 187°
2026-05-07 05:25 41.02801 102.98947 34195 ft 459 kts 187°
2026-05-07 05:26 40.96430 102.98971 34194 ft 460 kts 187°
2026-05-07 05:26 40.90035 102.99012 34195 ft 460 kts 188°
2026-05-07 05:27 40.83617 102.99043 34193 ft 461 kts 188°
2026-05-07 05:27 40.77197 102.99058 34198 ft 461 kts 188°
2026-05-07 05:28 40.70792 102.99073 34198 ft 461 kts 188°
2026-05-07 05:28 40.64379 102.99092 34198 ft 461 kts 188°
2026-05-07 05:29 40.57961 102.99116 34197 ft 461 kts 188°
2026-05-07 05:29 40.51545 102.99147 34195 ft 461 kts 188°
2026-05-07 05:30 40.45125 102.99174 34195 ft 461 kts 188°
2026-05-07 05:30 40.38711 102.99196 34196 ft 461 kts 189°
2026-05-07 05:31 40.32305 102.99209 34196 ft 461 kts 189°
2026-05-07 05:31 40.25879 102.99234 34192 ft 462 kts 189°
2026-05-07 05:32 40.19422 102.99265 34196 ft 462 kts 189°
2026-05-07 05:32 40.13039 102.99295 34201 ft 462 kts 189°
2026-05-07 05:33 40.06582 102.99319 34203 ft 462 kts 189°
2026-05-07 05:33 40.00186 102.99340 34203 ft 462 kts 189°
2026-05-07 05:34 39.93710 102.99360 34206 ft 462 kts 189°
2026-05-07 05:34 39.87300 102.99376 34206 ft 462 kts 189°
2026-05-07 05:35 39.80880 102.99393 34202 ft 462 kts 189°
2026-05-07 05:35 39.74398 102.99422 34204 ft 463 kts 188°
2026-05-07 05:36 39.67970 102.99453 34204 ft 462 kts 188°
2026-05-07 05:36 39.61531 102.99474 34204 ft 462 kts 189°
2026-05-07 05:37 39.55105 102.99495 34207 ft 462 kts 188°
2026-05-07 05:37 39.48681 102.99524 34206 ft 461 kts 188°
2026-05-07 05:38 39.42267 102.99546 34217 ft 461 kts 189°
2026-05-07 05:38 39.35821 103.00143 34207 ft 475 kts 175°
2026-05-07 05:39 39.29516 103.03150 34203 ft 489 kts 163°
2026-05-07 05:39 39.23313 103.06754 34199 ft 489 kts 163°
2026-05-07 05:40 39.17106 103.10322 34198 ft 488 kts 164°
2026-05-07 05:40 39.10895 103.13884 34195 ft 489 kts 164°
2026-05-07 05:41 39.04691 103.17448 34196 ft 489 kts 164°
2026-05-07 05:41 38.98473 103.21019 34193 ft 489 kts 164°
2026-05-07 05:42 38.92513 103.24435 34195 ft 489 kts 164°
2026-05-07 05:42 38.86295 103.27980 34197 ft 489 kts 164°
2026-05-07 05:43 38.80092 103.31508 34204 ft 488 kts 164°
2026-05-07 05:43 38.74897 103.34460 34207 ft 488 kts 164°
2026-05-07 05:44 38.67671 103.38570 34217 ft 488 kts 164°
2026-05-07 05:44 38.62471 103.41524 34221 ft 488 kts 164°
2026-05-07 05:45 38.56272 103.45033 34227 ft 487 kts 164°
2026-05-07 05:45 38.50075 103.48523 34231 ft 487 kts 164°
2026-05-07 05:46 38.43872 103.52014 34239 ft 486 kts 164°
2026-05-07 05:46 38.37722 103.55469 34247 ft 486 kts 164°
2026-05-07 05:47 38.31538 103.58948 34249 ft 485 kts 164°
2026-05-07 05:47 38.25362 103.62423 34258 ft 485 kts 164°
2026-05-07 05:48 38.19189 103.65878 34263 ft 484 kts 164°
2026-05-07 05:48 38.13022 103.69324 34269 ft 484 kts 164°
2026-05-07 05:49 38.06853 103.72754 34275 ft 483 kts 164°
2026-05-07 05:49 38.00700 103.76178 34277 ft 483 kts 164°
2026-05-07 05:50 37.94564 103.79584 34299 ft 482 kts 164°
2026-05-07 05:50 37.88423 103.82983 34310 ft 481 kts 164°
2026-05-07 05:51 37.82318 103.86358 34317 ft 479 kts 164°
2026-05-07 05:51 37.76205 103.89731 34328 ft 478 kts 164°
2026-05-07 05:52 37.70106 103.93101 34340 ft 477 kts 164°
2026-05-07 05:52 37.64029 103.96448 34350 ft 476 kts 164°
2026-05-07 05:53 37.57950 103.99783 34354 ft 475 kts 164°
2026-05-07 05:53 37.51891 104.03097 34361 ft 474 kts 164°
2026-05-07 05:54 37.45879 104.06392 34361 ft 472 kts 164°
2026-05-07 05:54 37.39830 104.09699 34365 ft 471 kts 164°
2026-05-07 05:55 37.33858 104.12960 34372 ft 469 kts 164°
2026-05-07 05:55 37.27862 104.16228 34372 ft 467 kts 165°
2026-05-07 05:56 37.21722 104.18349 34373 ft 451 kts 178°
2026-05-07 05:56 37.15548 104.19673 34373 ft 451 kts 177°
2026-05-07 05:57 37.09370 104.21016 34375 ft 450 kts 177°
2026-05-07 05:57 37.03219 104.22349 34378 ft 449 kts 177°
2026-05-07 05:58 36.97083 104.23676 34384 ft 449 kts 177°
2026-05-07 05:58 36.90952 104.24991 34376 ft 448 kts 176°
2026-05-07 05:59 36.84789 104.26311 34371 ft 448 kts 176°
2026-05-07 05:59 36.78648 104.27636 34366 ft 448 kts 176°
2026-05-07 06:00 36.72508 104.28960 34365 ft 448 kts 176°
2026-05-07 06:00 36.66347 104.30289 34365 ft 448 kts 176°
2026-05-07 06:01 36.60205 104.31611 34361 ft 449 kts 176°
2026-05-07 06:01 36.54073 104.32915 34359 ft 449 kts 176°
2026-05-07 06:02 36.47871 104.34125 34358 ft 445 kts 182°
2026-05-07 06:02 36.41737 104.34275 34356 ft 442 kts 185°
2026-05-07 06:03 36.35604 104.34371 34356 ft 443 kts 185°
2026-05-07 06:03 36.29398 104.34474 34364 ft 445 kts 185°
2026-05-07 06:04 36.23240 104.34573 34358 ft 446 kts 185°
2026-05-07 06:04 36.17016 104.34681 34366 ft 447 kts 185°
2026-05-07 06:05 36.10798 104.34791 34367 ft 448 kts 185°
2026-05-07 06:05 36.04544 104.34895 34364 ft 449 kts 185°
2026-05-07 06:06 35.98270 104.35002 34371 ft 450 kts 185°
2026-05-07 06:06 35.92022 104.35104 34368 ft 451 kts 185°
2026-05-07 06:07 35.85760 104.35206 34368 ft 451 kts 185°
2026-05-07 06:07 35.79466 104.35308 34371 ft 452 kts 185°
2026-05-07 06:08 35.73200 104.35410 34376 ft 452 kts 185°
2026-05-07 06:08 35.66889 104.35505 34374 ft 452 kts 186°
2026-05-07 06:09 35.60610 104.35600 34370 ft 452 kts 185°
2026-05-07 06:09 35.54304 104.35707 34376 ft 452 kts 185°
2026-05-07 06:10 35.48041 104.35814 34378 ft 452 kts 186°
2026-05-07 06:10 35.41773 104.35916 34377 ft 451 kts 186°
2026-05-07 06:11 35.35465 104.36011 34363 ft 451 kts 186°
2026-05-07 06:11 35.29217 104.36114 34360 ft 452 kts 186°
2026-05-07 06:12 35.22939 104.36212 34357 ft 452 kts 186°
2026-05-07 06:12 35.16641 104.36301 34359 ft 452 kts 186°
2026-05-07 06:13 35.10348 104.36402 34361 ft 452 kts 186°
2026-05-07 06:13 35.04049 104.36506 34355 ft 453 kts 185°
2026-05-07 06:14 34.97764 104.36613 34350 ft 453 kts 185°
2026-05-07 06:14 34.91433 104.36715 34351 ft 453 kts 185°
2026-05-07 06:15 34.85165 104.36807 34351 ft 454 kts 185°
2026-05-07 06:15 34.78846 104.36898 34349 ft 454 kts 185°
2026-05-07 06:16 34.72497 104.37004 34349 ft 454 kts 185°
2026-05-07 06:16 34.66170 104.37113 34350 ft 455 kts 185°
2026-05-07 06:17 34.59853 104.37211 34353 ft 455 kts 185°
2026-05-07 06:17 34.53528 104.37308 34352 ft 455 kts 185°
2026-05-07 06:18 34.47185 104.37409 34347 ft 455 kts 185°
2026-05-07 06:18 34.40873 104.37502 34345 ft 456 kts 185°
2026-05-07 06:19 34.34530 104.37608 34339 ft 456 kts 185°
2026-05-07 06:19 34.28183 104.37709 34338 ft 456 kts 185°
2026-05-07 06:20 34.21818 104.37797 34329 ft 456 kts 185°
2026-05-07 06:20 34.15518 104.37899 34329 ft 456 kts 185°
2026-05-07 06:21 34.09166 104.37999 34318 ft 456 kts 185°
2026-05-07 06:21 34.02807 104.38097 34312 ft 456 kts 185°
2026-05-07 06:22 33.96483 104.38196 34306 ft 457 kts 185°
2026-05-07 06:22 33.86916 104.38350 34306 ft 457 kts 185°
2026-05-07 06:23 33.80581 104.38437 34310 ft 457 kts 185°
2026-05-07 06:23 33.74245 104.38533 34311 ft 456 kts 185°
2026-05-07 06:24 33.67886 104.38633 34305 ft 456 kts 185°
2026-05-07 06:24 33.61537 104.39243 34305 ft 465 kts 172°
2026-05-07 06:25 33.55497 104.42202 34301 ft 479 kts 154°
2026-05-07 06:25 33.49775 104.46347 34290 ft 479 kts 154°
2026-05-07 06:26 33.44094 104.50425 34284 ft 479 kts 154°
2026-05-07 06:26 33.38135 104.53937 34282 ft 470 kts 168°
2026-05-07 06:27 33.31886 104.55286 34282 ft 455 kts 184°
2026-05-07 06:27 33.25519 104.55675 34279 ft 456 kts 184°
2026-05-07 06:28 33.19176 104.56079 34281 ft 456 kts 184°
2026-05-07 06:28 33.12851 104.56489 34273 ft 455 kts 184°
2026-05-07 06:29 33.06529 104.56897 34281 ft 455 kts 184°
2026-05-07 06:29 33.00196 104.57303 34281 ft 455 kts 184°
2026-05-07 06:30 32.93882 104.57695 34284 ft 454 kts 184°
2026-05-07 06:30 32.87603 104.58084 34276 ft 454 kts 184°
2026-05-07 06:31 32.81302 104.58483 34284 ft 453 kts 184°
2026-05-07 06:31 32.74982 104.58879 34280 ft 453 kts 184°
2026-05-07 06:32 32.68703 104.59191 34272 ft 451 kts 185°
2026-05-07 06:32 32.63474 104.59396 34277 ft 452 kts 185°
2026-05-07 06:33 32.57225 104.59645 34271 ft 451 kts 185°
2026-05-07 06:33 32.50927 104.59931 34267 ft 451 kts 185°
2026-05-07 06:34 32.44671 104.60225 34257 ft 450 kts 185°
2026-05-07 06:34 32.38403 104.60524 34258 ft 451 kts 185°
2026-05-07 06:35 32.32155 104.60865 34250 ft 450 kts 184°
2026-05-07 06:35 32.25933 104.61221 34237 ft 450 kts 184°
2026-05-07 06:36 32.19668 104.61565 34229 ft 450 kts 184°
2026-05-07 06:36 32.13422 104.61904 34228 ft 450 kts 184°
2026-05-07 06:37 32.07158 104.62241 34219 ft 450 kts 184°
2026-05-07 06:37 32.00866 104.62589 34219 ft 451 kts 184°
2026-05-07 06:38 31.94604 104.62937 34209 ft 451 kts 184°
2026-05-07 06:38 31.88346 104.63276 34206 ft 451 kts 184°
2026-05-07 06:39 31.82107 104.63616 34200 ft 451 kts 184°
2026-05-07 06:39 31.75817 104.63946 34195 ft 452 kts 185°
2026-05-07 06:40 31.69542 104.64205 34191 ft 451 kts 185°
2026-05-07 06:40 31.63286 104.64425 34184 ft 452 kts 185°
2026-05-07 06:41 31.56972 104.64655 34186 ft 452 kts 185°
2026-05-07 06:41 31.50689 104.64907 34185 ft 452 kts 186°
2026-05-07 06:42 31.44427 104.65173 34188 ft 452 kts 186°
2026-05-07 06:42 31.38160 104.65420 34192 ft 451 kts 186°
2026-05-07 06:43 31.31882 104.65655 34198 ft 450 kts 187°
2026-05-07 06:43 31.25637 104.65893 34196 ft 450 kts 186°
2026-05-07 06:44 31.19382 104.66144 34196 ft 450 kts 186°
2026-05-07 06:44 31.13122 104.66394 34190 ft 449 kts 188°
2026-05-07 06:45 31.10066 104.66162 34186 ft 436 kts 198°
2026-05-07 06:45 31.07178 104.65281 34184 ft 424 kts 208°
2026-05-07 06:45 31.02219 104.61879 34187 ft 405 kts 227°
2026-05-07 06:46 30.98607 104.56944 34183 ft 399 kts 237°
2026-05-07 06:46 30.95323 104.51769 34179 ft 399 kts 237°
2026-05-07 06:47 30.92000 104.46569 34182 ft 399 kts 237°
2026-05-07 06:47 30.88645 104.41439 34180 ft 402 kts 232°
2026-05-07 06:48 30.84152 104.37431 34180 ft 418 kts 212°
2026-05-07 06:48 30.78831 104.34643 34182 ft 420 kts 211°
2026-05-07 06:49 30.73489 104.31853 34181 ft 421 kts 211°
2026-05-07 06:49 30.68146 104.29063 34181 ft 421 kts 211°
2026-05-07 06:50 30.62800 104.26267 34183 ft 422 kts 211°
2026-05-07 06:50 30.57447 104.23464 34180 ft 422 kts 211°
2026-05-07 06:51 30.52063 104.20634 34179 ft 427 kts 207°
2026-05-07 06:51 30.46184 104.19211 34180 ft 440 kts 195°
2026-05-07 06:52 30.40098 104.18314 34164 ft 441 kts 195°
2026-05-07 06:52 30.33990 104.17424 34166 ft 441 kts 195°
2026-05-07 06:53 30.27904 104.16514 34160 ft 442 kts 195°
2026-05-07 06:53 30.21796 104.15597 34155 ft 442 kts 195°
2026-05-07 06:54 30.15697 104.14686 34158 ft 443 kts 195°
2026-05-07 06:54 30.09591 104.13776 34154 ft 443 kts 195°
2026-05-07 06:55 30.03467 104.12863 34153 ft 444 kts 195°
2026-05-07 06:55 29.97313 104.11947 34154 ft 445 kts 195°
2026-05-07 06:56 29.91179 104.11044 34151 ft 445 kts 195°
2026-05-07 06:56 29.85049 104.10132 34147 ft 446 kts 195°
2026-05-07 06:57 29.78895 104.09215 34147 ft 447 kts 195°
2026-05-07 06:57 29.72686 104.08297 34146 ft 447 kts 195°
2026-05-07 06:58 29.66528 104.07385 34147 ft 448 kts 195°
2026-05-07 06:58 29.60358 104.06478 34145 ft 448 kts 195°
2026-05-07 06:59 29.54168 104.05574 34146 ft 448 kts 195°
2026-05-07 06:59 29.47998 104.04675 34148 ft 448 kts 195°
2026-05-07 07:00 29.41782 104.03752 34150 ft 448 kts 195°
2026-05-07 07:00 29.35516 104.03356 34147 ft 457 kts 187°
2026-05-07 07:01 29.29176 104.03454 34152 ft 457 kts 187°
2026-05-07 07:01 29.22827 104.03560 34149 ft 457 kts 187°
2026-05-07 07:02 29.16440 104.03654 34148 ft 456 kts 187°
2026-05-07 07:02 29.10116 104.03740 34145 ft 456 kts 187°
2026-05-07 07:03 29.03754 104.03826 34151 ft 456 kts 187°
2026-05-07 07:03 28.97400 104.03910 34158 ft 456 kts 187°
2026-05-07 07:04 28.91066 104.03995 34158 ft 456 kts 187°
2026-05-07 07:04 28.84726 104.04088 34162 ft 457 kts 187°
2026-05-07 07:05 28.78385 104.04177 34165 ft 457 kts 187°
2026-05-07 07:05 28.71990 104.04268 34160 ft 457 kts 187°
2026-05-07 07:06 28.65668 104.04364 34163 ft 457 kts 187°
2026-05-07 07:06 28.59354 104.04007 34161 ft 445 kts 199°
2026-05-07 07:07 28.53686 104.01667 34167 ft 427 kts 216°
2026-05-07 07:07 28.48657 103.98133 34164 ft 425 kts 218°
2026-05-07 07:08 28.43640 103.94598 34173 ft 426 kts 218°
2026-05-07 07:08 28.38572 103.91036 34175 ft 427 kts 218°
2026-05-07 07:09 28.33548 103.87499 34182 ft 428 kts 218°
2026-05-07 07:09 28.28481 103.83936 34184 ft 428 kts 218°
2026-05-07 07:10 28.23426 103.80382 34195 ft 428 kts 218°
2026-05-07 07:10 28.18348 103.76820 34194 ft 429 kts 218°
2026-05-07 07:11 28.13274 103.73265 34205 ft 429 kts 218°
2026-05-07 07:11 28.08190 103.69705 34209 ft 429 kts 218°
2026-05-07 07:12 28.03128 103.66159 34211 ft 429 kts 218°
2026-05-07 07:12 27.98040 103.62606 34218 ft 429 kts 218°
2026-05-07 07:13 27.92943 103.59055 34220 ft 429 kts 218°
2026-05-07 07:13 27.87883 103.55538 34224 ft 429 kts 218°
2026-05-07 07:14 27.82777 103.51982 34234 ft 430 kts 218°
2026-05-07 07:14 27.77701 103.48452 34238 ft 430 kts 218°
2026-05-07 07:15 27.72571 103.44884 34235 ft 430 kts 218°
2026-05-07 07:15 27.67496 103.41366 34241 ft 431 kts 218°
2026-05-07 07:16 27.63240 103.38418 34240 ft 430 kts 218°
2026-05-07 07:16 27.58122 103.34872 34245 ft 431 kts 218°
2026-05-07 07:17 27.52175 103.30756 34239 ft 431 kts 218°
2026-05-07 07:17 27.47898 103.27801 34234 ft 431 kts 218°
2026-05-07 07:18 27.42548 103.24657 34235 ft 440 kts 208°
2026-05-07 07:18 27.35931 103.21738 34238 ft 441 kts 208°
2026-05-07 07:19 27.31168 103.19638 34222 ft 441 kts 208°
2026-05-07 07:19 27.25459 103.17114 34240 ft 442 kts 208°
2026-05-07 07:20 27.19734 103.14579 34228 ft 442 kts 208°
2026-05-07 07:20 27.13999 103.12044 34215 ft 442 kts 208°
2026-05-07 07:21 27.08293 103.09518 34210 ft 442 kts 207°